THORAD AGENA D DEB, 4757

Orbit data source: Space-Track

THORAD AGENA D DEB, 4757 is space debris in SSO originally from a launch on Wed, 08 Apr 1970 UTC launched from the Air Force Western Test Range (AFWTR). Debris objects in space refer to the collection of defunct objects orbiting the Earth. Examples of debris include non-operational satellites, rocket bodies, and fragments generated from explosions, collisions, or faulty payload assembly.

Loading next visibility...
Identifier
4757, 1970-025DF
Orbit
SSO
Country
Flag of USUS
Related business
Manufacturer
Unknown
Mission
Spacecraft
Bus & Motor
Unknown
Mass
Unknown
Launch date (UTC)
1970-04-08 (56 years ago)
Launch vehicle
Unknown
Launch site
Air Force Western Test Range (AFWTR)
Object type
Payload
Rocket body
Debris
Shape & HBR
Unknown shape, 0.1 m
Radar Cross Section
Medium (>0.1 m² and <1 m²)

Expand to show TLE details & history
Last TLE update: 6 hours ago

TLE from 6 hours ago
0 THORAD AGENA D DEB
1  4757U 70025DF  26150.09490958  .00000455  00000-0  62380-3 0  9991
2  4757  99.3897  22.1453 0013390 124.2146 236.0268 13.64113494778301
Epoch: 2026-05-30T02:16Z
TLE epoch observation values (Epoch: 2026-05-30T02:16:40.187Z)
Latitude
-0.00003°
Longitude
100.362°
Altitude
1,029.142 km
Speed
7.334 km/s
True Right ascension
01h 28m 34s
True Declination
0° 00' 00"
Sunlit
Object was in daylight at epoch
Visualization orbit readout
Latitude
Unknown
Longitude
Unknown
Altitude
Unknown
Speed
Unknown
Apparent Right ascension
Unknown
Apparent Declination
Unknown
Sunlit
N/A
Visualization observer readout
Local Sidereal Time
17:51:38
Azimuth
Unknown
Elevation
Unknown
Doppler factor
Unknown
Orbital elements
Apogee altitude
1,027.95 km
Perigee altitude
1,008.144 km
Semi-major axis
7,396.184 km
Eccentricity
0.00134
Inclination
99.3897°
RAAN
22.1453°
Arg. of periapsis
124.2146°
True anomaly
235.89967°
Mean anomaly
236.0268°
Eccentric anomaly
235.96322°
Mean motion
3.41218 °/min
Orbital period
105.5 mins
BSTAR
0.0006238
Loading maneuver chart data...
Computing Atmospheric mass density...

Documentation

Showing up to 5 results
|